Location: Christchurch
(43.5330°S, 172.6330°E)
Time: 18:43:19
(UTC+12:00)

Cosmos 2322 - Visible Passes

Search period start: 24 April 2019 00:00
Search period end: 04 May 2019 00:00
Orbit: 841 x 854 km, 71.0° (Epoch: 23 April)

Date Brightness Start Highest point End Pass type
(mag) Time Alt. Az. Time Alt. Az. Time Alt. Az.
24 Apr 4.6 04:15:43 42° SSE 04:15:43 42° SSE 04:19:28 10° SSE visible
24 Apr 5.2 05:57:42 16° WSW 05:58:44 17° SW 06:02:25 10° S visible
25 Apr 5.1 04:03:18 31° SSE 04:03:18 31° SSE 04:06:13 10° SSE visible
25 Apr 5.2 05:45:16 17° SW 05:45:29 17° SW 05:49:11 10° S visible
26 Apr 5.6 03:50:49 24° SSE 03:50:49 24° SSE 03:52:59 10° SSE visible
26 Apr 5.3 05:32:46 17° SW 05:32:46 17° SW 05:35:59 10° S visible
27 Apr 5.9 03:38:15 19° SSE 03:38:15 19° SSE 03:39:44 10° SSE visible
27 Apr 5.5 05:20:12 17° SSW 05:20:12 17° SSW 05:22:46 10° S visible
28 Apr 6.2 03:25:39 15° SSE 03:25:39 15° SSE 03:26:29 10° SSE visible
28 Apr 5.6 05:07:36 16° SSW 05:07:36 16° SSW 05:09:32 10° S visible
29 Apr 6.5 03:12:59 11° SSE 03:12:59 11° SSE 03:13:14 10° SSE visible
29 Apr 5.8 04:54:57 14° SSW 04:54:57 14° SSW 04:56:20 10° S visible
30 Apr 5.9 04:42:14 13° S 04:42:14 13° S 04:43:07 10° S visible
01 May 6.1 04:29:30 11° S 04:29:30 11° S 04:29:53 10° S visible
